period_start,C,m1,H,J0,J1,J2,J3,J4,J5,JA,JB,JC,JD,JJ,JK,JN,#
2018-09-04 00:00:13,0.02,0.03,0.00,20.00,23.80,26.93,14.11,47.95,1016.11,2041.45,3381.98,3110.90,3572.98,600.22,602.12,8.97,0000 0000 0000 0000 000000
2018-09-04 00:05:14,0.00,0.03,0.00,19.99,23.78,26.89,14.12,48.08,1016.13,2041.65,3381.98,3110.96,3572.97,599.72,601.46,9.02,0000 0000 0000 0000 000000
2018-09-04 00:10:15,0.01,0.04,0.00,19.99,23.77,26.87,14.09,47.99,1016.12,2041.88,3381.99,3110.98,3572.98,600.38,602.21,9.07,0000 0000 0000 0000 000000
2018-09-04 00:15:16,0.00,0.04,0.00,19.97,23.76,26.84,14.09,48.12,1016.13,2041.91,3381.97,3110.96,3572.98,600.05,602.03,9.12,0000 0000 0000 0000 000000
2018-09-04 00:20:17,0.00,0.04,0.00,19.97,23.75,26.87,14.08,47.98,1016.12,2041.94,3381.89,3110.97,3572.99,600.28,602.14,9.17,0000 0000 0000 0000 000000
2018-09-04 00:25:19,0.00,0.04,0.00,19.97,23.73,26.86,14.13,47.96,1016.12,2041.98,3381.91,3110.98,3572.98,600.02,601.81,9.22,0000 0000 0000 0000 000000
2018-09-04 00:30:20,-0.00,0.04,0.00,19.96,23.72,26.84,14.06,48.08,1016.12,2041.98,3381.97,3110.99,3572.99,599.71,601.69,9.27,0000 0000 0000 0000 000000
2018-09-04 00:35:21,0.00,0.04,0.00,19.95,23.71,26.80,14.13,48.00,1016.03,2041.98,3381.94,3110.99,3572.99,599.62,601.48,9.32,0000 0000 0000 0000 000000
2018-09-04 00:40:22,0.00,0.04,0.00,19.94,23.70,26.83,14.19,48.05,1015.94,2041.99,3381.85,3110.99,3572.98,600.28,602.17,9.37,0000 0000 0000 0000 000000
2018-09-04 00:45:23,0.02,0.04,0.00,19.94,23.69,26.82,14.15,47.95,1015.94,2041.99,3381.48,3110.96,3572.67,600.54,602.33,9.42,0000 0000 0000 0000 000000
2018-09-04 00:50:25,0.00,0.04,0.00,19.94,23.67,26.81,14.14,48.03,1015.73,2041.99,3381.13,3110.96,3572.23,600.01,601.69,9.47,0000 0000 0000 0000 000000
2018-09-04 00:55:26,0.00,0.04,0.00,19.92,23.67,26.79,14.18,48.17,1015.69,2041.99,3381.05,3110.97,3572.14,600.04,601.80,9.52,0000 0000 0000 0000 000000
2018-09-04 01:00:27,-0.00,0.04,0.00,19.90,23.65,26.77,14.13,48.17,1015.65,2042.01,3381.06,3110.98,3572.28,600.16,601.76,9.57,0000 0000 0000 0000 000000
2018-09-04 01:05:29,0.00,0.04,0.00,19.89,23.65,26.76,14.08,48.10,1015.64,2042.02,3381.05,3110.99,3572.22,600.01,601.78,9.62,0000 0000 0000 0000 000000
2018-09-04 01:10:31,-0.00,0.04,0.00,19.89,23.63,26.76,14.11,48.14,1015.64,2042.03,3381.04,3110.99,3572.21,600.04,601.79,9.67,0000 0000 0000 0000 000000
2018-09-04 01:15:32,0.00,0.04,0.00,19.87,23.62,26.75,14.14,48.08,1015.65,2042.03,3381.05,3110.99,3572.19,600.25,602.05,9.72,0000 0000 0000 0000 000000
2018-09-04 01:20:33,0.00,0.04,0.00,19.84,23.61,26.73,14.07,48.13,1015.70,2042.07,3381.04,3110.99,3572.14,599.81,601.78,9.77,0000 0000 0000 0000 000000
2018-09-04 01:25:34,0.02,0.04,0.00,19.82,23.60,26.77,14.15,48.17,1015.73,2042.28,3381.01,3111.00,3572.14,600.13,602.13,9.82,0000 0000 0000 0000 000000
2018-09-04 01:30:35,0.00,0.04,0.00,19.81,23.59,26.75,14.08,48.00,1015.70,2042.36,3381.00,3111.00,3572.05,600.00,602.05,9.87,0000 0000 0000 0000 000000
2018-09-04 01:35:36,0.01,0.04,0.00,19.81,23.57,26.69,14.10,48.13,1015.67,2042.47,3381.00,3111.00,3572.01,599.68,601.64,9.92,0000 0000 0000 0000 000000
2018-09-04 01:40:37,0.01,0.04,0.00,19.79,23.56,26.67,14.15,48.14,1015.65,2042.80,3381.00,3111.00,3572.02,600.14,602.00,9.98,0000 0000 0000 0000 000000
2018-09-04 01:45:39,0.01,0.04,0.00,19.80,23.55,26.70,14.15,48.24,1015.64,2042.85,3380.99,3111.00,3572.00,599.93,601.94,10.03,0000 0000 0000 0000 000000
2018-09-04 01:50:40,0.00,0.04,0.00,19.79,23.54,26.66,14.20,48.27,1015.64,2042.95,3380.99,3111.00,3572.00,600.07,601.96,10.08,0000 0000 0000 0000 000000
2018-09-04 01:55:41,-0.00,0.04,0.00,19.79,23.52,26.66,14.13,48.17,1015.65,2042.97,3380.99,3111.00,3572.00,600.21,602.25,10.13,0000 0000 0000 0000 000000
2018-09-04 02:00:43,0.00,0.04,0.00,19.78,23.52,26.61,14.13,48.20,1015.65,2042.97,3380.98,3111.01,3572.00,599.80,601.88,10.18,0000 0000 0000 0000 000000
2018-09-04 02:05:44,0.00,0.04,0.00,19.75,23.50,26.63,14.12,48.24,1015.65,2042.98,3380.99,3111.00,3572.00,600.13,602.21,10.23,0000 0000 0000 0000 000000
2018-09-04 02:10:45,0.00,0.04,0.00,19.74,23.50,26.62,14.13,48.11,1015.65,2042.99,3380.90,3111.00,3572.00,599.89,602.05,10.28,0000 0000 0000 0000 000000
2018-09-04 02:15:47,0.00,0.04,0.00,19.74,23.48,26.61,14.04,48.14,1015.71,2042.99,3380.78,3111.00,3572.00,599.97,601.99,10.33,0000 0000 0000 0000 000000
2018-09-04 02:20:48,0.00,0.04,0.00,19.72,23.47,26.60,14.11,48.08,1015.70,2042.99,3380.50,3111.01,3572.00,599.93,602.17,10.38,0000 0000 0000 0000 000000
2018-09-04 02:25:49,0.00,0.04,0.00,19.72,23.46,26.59,14.15,47.92,1015.68,2043.02,3380.31,3111.01,3572.00,600.13,602.28,10.43,0000 0000 0000 0000 000000
2018-09-04 02:30:51,0.00,0.04,0.00,19.74,23.45,26.58,14.13,48.12,1015.66,2043.03,3380.21,3111.02,3572.00,599.83,601.82,10.48,0000 0000 0000 0000 000000
2018-09-04 02:35:52,-0.00,0.04,0.00,19.73,23.44,26.56,14.15,48.09,1015.64,2043.05,3380.31,3111.03,3572.00,599.92,602.11,10.53,0000 0000 0000 0000 000000
2018-09-04 02:40:53,0.01,0.04,0.00,19.72,23.42,26.56,14.13,48.21,1015.64,2043.15,3380.29,3111.05,3572.00,599.91,601.94,10.58,0000 0000 0000 0000 000000
2018-09-04 02:45:54,0.03,0.04,0.00,19.71,23.42,26.57,14.10,48.16,1015.64,2043.39,3380.35,3111.07,3572.01,600.12,602.31,10.63,0000 0000 0000 0000 000000
2018-09-04 02:50:55,-0.00,0.04,0.00,19.72,23.41,26.53,14.19,48.22,1015.64,2043.44,3380.20,3111.07,3572.00,600.35,602.37,10.68,0000 0000 0000 0000 000000
2018-09-04 02:55:57,0.03,0.05,0.00,19.72,23.40,26.54,14.16,48.22,1015.64,2043.84,3380.30,3111.33,3572.00,600.03,602.12,10.73,0000 0000 0000 0000 000000
2018-09-04 03:00:58,0.01,0.05,0.00,19.71,23.39,26.49,14.13,48.20,1015.64,2043.93,3380.12,3111.22,3572.00,600.33,602.37,10.78,0000 0000 0000 0000 000000
2018-09-04 03:05:59,0.01,0.05,0.00,19.71,23.37,26.49,14.16,48.26,1015.64,2043.93,3380.04,3111.11,3572.00,599.99,602.16,10.83,0000 0000 0000 0000 000000
2018-09-04 03:11:00,0.00,0.05,0.00,19.72,23.37,26.47,14.13,48.32,1015.64,2043.97,3380.04,3111.05,3571.99,599.86,602.08,10.88,0000 0000 0000 0000 000000
2018-09-04 03:16:01,0.00,0.05,0.00,19.72,23.37,26.46,14.13,48.37,1015.64,2043.97,3380.05,3111.05,3571.98,600.09,602.22,10.93,0000 0000 0000 0000 000000
2018-09-04 03:21:03,0.00,0.05,0.00,19.70,23.36,26.47,14.17,48.19,1015.64,2043.97,3380.06,3111.09,3571.99,600.36,602.39,10.98,0000 0000 0000 0000 000000
2018-09-04 03:26:04,-0.00,0.05,0.00,19.70,23.35,26.46,14.07,48.17,1015.65,2043.96,3380.02,3111.06,3571.98,599.67,601.82,11.03,0000 0000 0000 0000 000000
2018-09-04 03:31:06,-0.00,0.05,0.00,19.69,23.35,26.44,14.10,48.27,1015.64,2043.97,3380.04,3111.12,3571.97,599.86,602.04,11.08,0000 0000 0000 0000 000000
2018-09-04 03:36:07,-0.01,0.05,0.00,19.68,23.34,26.48,14.10,48.24,1015.64,2043.96,3380.09,3111.29,3571.96,599.71,601.93,11.13,0000 0000 0000 0000 000000
2018-09-04 03:41:08,0.01,0.05,0.00,19.66,23.33,26.47,14.12,48.30,1015.64,2043.98,3380.04,3111.25,3571.98,599.96,602.25,11.18,0000 0000 0000 0000 000000
2018-09-04 03:46:09,0.00,0.05,0.00,19.64,23.32,26.48,14.14,48.27,1015.61,2043.96,3380.03,3111.19,3571.96,599.90,602.18,11.23,0000 0000 0000 0000 000000
2018-09-04 03:51:11,-0.01,0.05,0.00,19.63,23.32,26.46,14.11,48.28,1015.59,2043.97,3380.03,3111.50,3571.97,600.13,602.34,11.28,0000 0000 0000 0000 000000
2018-09-04 03:56:12,-0.01,0.05,0.00,19.63,23.30,26.45,14.07,48.25,1015.58,2043.96,3380.04,3111.71,3571.96,600.11,602.38,11.33,0000 0000 0000 0000 000000
2018-09-04 04:01:13,0.00,0.05,0.00,19.61,23.29,26.48,14.07,48.23,1015.60,2043.98,3380.04,3111.80,3571.96,599.45,601.81,11.38,0000 0000 0000 0000 000000
2018-09-04 04:06:14,0.00,0.05,0.00,19.59,23.29,26.41,14.13,48.22,1015.48,2043.98,3380.03,3111.76,3571.92,599.76,601.99,11.43,0000 0000 0000 0000 000000
2018-09-04 04:11:15,-0.00,0.05,0.00,19.57,23.28,26.44,14.15,48.17,1015.37,2043.99,3380.01,3111.84,3571.95,600.07,602.35,11.48,0000 0000 0000 0000 000000
2018-09-04 04:16:16,-0.00,0.05,0.00,19.55,23.27,26.46,14.18,48.27,1015.34,2043.99,3380.00,3111.90,3571.97,600.21,602.64,11.53,0000 0000 0000 0000 000000
2018-09-04 04:21:17,0.00,0.05,0.00,19.54,23.26,26.43,14.07,48.17,1015.28,2043.99,3380.00,3111.80,3571.94,599.81,602.11,11.58,0000 0000 0000 0000 000000
2018-09-04 04:26:19,0.00,0.05,0.00,19.55,23.25,26.39,14.11,48.20,1015.23,2043.99,3380.00,3111.79,3571.92,600.18,602.39,11.63,0000 0000 0000 0000 000000
2018-09-04 04:31:20,0.01,0.05,0.00,19.54,23.24,26.40,14.08,48.05,1015.19,2043.99,3380.00,3111.66,3571.64,599.98,602.17,11.68,0000 0000 0000 0000 000000
2018-09-04 04:36:21,0.01,0.05,0.00,19.54,23.24,26.37,14.04,48.14,1015.22,2043.99,3380.00,3111.56,3571.45,599.82,601.97,11.73,0000 0000 0000 0000 000000
2018-09-04 04:41:22,-0.00,0.05,0.00,19.53,23.22,26.35,14.14,48.20,1015.23,2043.99,3379.98,3111.44,3571.28,600.02,602.30,11.78,0000 0000 0000 0000 000000
2018-09-04 04:46:23,0.00,0.05,0.00,19.55,23.22,26.34,14.05,48.03,1015.19,2044.01,3379.98,3111.55,3571.41,599.91,602.08,11.83,0000 0000 0000 0000 000000
2018-09-04 04:51:25,-0.01,0.05,0.00,19.55,23.22,26.37,14.13,48.22,1015.16,2044.02,3379.98,3111.66,3571.30,600.02,602.29,11.88,0000 0000 0000 0000 000000
2018-09-04 04:56:26,0.00,0.05,0.00,19.54,23.20,26.36,14.12,48.18,1015.16,2044.02,3379.98,3111.76,3571.19,599.90,602.14,11.93,0000 0000 0000 0000 000000
2018-09-04 05:01:27,-0.01,0.05,0.00,19.54,23.19,26.30,14.10,48.23,1015.16,2044.03,3379.99,3111.81,3571.29,600.18,602.47,11.98,0000 0000 0000 0000 000000
2018-09-04 05:06:29,0.00,0.05,0.00,19.52,23.19,26.34,14.09,48.13,1015.15,2044.04,3379.98,3111.80,3571.18,599.94,602.15,12.03,0000 0000 0000 0000 000000
2018-09-04 05:11:30,0.00,0.05,0.00,19.51,23.19,26.30,14.12,48.23,1015.15,2044.06,3379.96,3111.68,3571.06,600.11,602.46,12.08,0000 0000 0000 0000 000000
2018-09-04 05:16:31,0.00,0.05,0.00,19.49,23.18,26.33,14.15,48.32,1015.15,2044.06,3379.95,3111.60,3571.04,600.12,602.32,12.13,0000 0000 0000 0000 000000
2018-09-04 05:21:33,-0.00,0.05,0.00,19.48,23.17,26.34,14.14,48.30,1015.15,2044.05,3379.95,3111.55,3571.01,600.06,602.34,12.19,0000 0000 0000 0000 000000
2018-09-04 05:26:34,0.02,0.05,0.00,19.46,23.17,26.35,14.24,48.25,1015.14,2044.14,3379.81,3111.50,3571.00,600.10,602.51,12.24,0000 0000 0000 0000 000000
2018-09-04 05:31:35,0.01,0.05,0.00,19.44,23.16,26.33,14.17,48.22,1015.15,2044.44,3379.73,3111.63,3571.02,600.06,602.47,12.29,0000 0000 0000 0000 000000
2018-09-04 05:36:36,0.01,0.05,0.00,19.45,23.15,26.35,14.20,48.26,1015.10,2044.43,3379.85,3111.79,3571.01,599.99,602.31,12.34,0000 0000 0000 0000 000000
2018-09-04 05:41:38,0.00,0.05,0.00,19.44,23.14,26.30,14.06,48.21,1015.12,2044.37,3379.66,3111.66,3571.01,599.54,601.95,12.39,0000 0000 0000 0000 000000
2018-09-04 05:46:39,0.03,0.05,0.00,19.43,23.14,26.28,14.14,48.35,1015.10,2044.29,3379.19,3110.96,3570.63,599.98,602.49,12.44,0000 0000 0000 0000 000000
2018-09-04 05:51:40,0.15,0.06,0.00,19.42,23.12,26.31,14.20,48.31,1015.11,2044.46,3377.49,3108.69,3567.85,600.19,602.63,12.49,0000 0000 0000 0000 000000
2018-09-04 05:56:42,0.01,0.06,0.00,19.42,23.12,26.28,14.03,48.32,1015.07,2044.61,3377.00,3107.98,3567.00,599.58,601.91,12.54,0000 0000 0000 0000 000000
2018-09-04 06:01:43,0.03,0.06,0.00,19.40,23.12,26.28,14.09,48.41,1014.94,2044.48,3376.43,3107.37,3566.40,599.61,601.91,12.59,0000 0000 0000 0000 000000
2018-09-04 06:06:44,0.03,0.06,0.00,19.39,23.11,26.26,14.08,48.36,1014.89,2044.68,3376.02,3106.96,3566.00,600.08,602.42,12.64,0000 0000 0000 0000 000000
2018-09-04 06:11:45,0.01,0.06,0.00,19.38,23.10,26.27,14.22,48.25,1015.07,2044.80,3376.00,3106.83,3565.98,600.27,602.76,12.69,0000 0000 0000 0000 000000
2018-09-04 06:16:47,0.01,0.07,0.00,19.37,23.09,26.27,14.06,48.24,1015.12,2044.83,3376.00,3106.30,3565.81,599.72,602.24,12.74,0000 0000 0000 0000 000000
2018-09-04 06:21:48,-0.01,0.06,0.00,19.35,23.09,26.23,14.17,48.25,1015.15,2044.75,3375.99,3106.42,3565.66,600.11,602.84,12.79,0000 0000 0000 0000 000000
2018-09-04 06:26:49,0.01,0.06,0.00,19.34,23.07,26.25,14.12,48.23,1015.14,2044.93,3375.99,3106.73,3565.74,600.04,602.68,12.84,0000 0000 0000 0000 000000
2018-09-04 06:31:50,0.00,0.07,0.00,19.33,23.07,26.28,14.13,48.14,1015.14,2044.95,3375.99,3106.65,3565.65,600.14,602.77,12.89,0000 0000 0000 0000 000000
2018-09-04 06:36:52,0.01,0.07,0.00,19.34,23.07,26.24,14.13,48.23,1015.13,2044.96,3375.98,3106.50,3565.32,599.98,602.59,12.94,0000 0000 0000 0000 000000
2018-09-04 06:41:53,0.01,0.07,0.00,19.34,23.05,26.24,14.16,48.21,1015.08,2044.96,3375.90,3106.14,3565.05,599.99,602.92,12.99,0000 0000 0000 0000 000000
2018-09-04 06:46:54,0.00,0.07,0.00,19.36,23.04,26.20,14.12,48.29,1015.09,2044.96,3375.91,3106.16,3565.02,599.67,602.21,13.04,0000 0000 0000 0000 000000
2018-09-04 06:51:55,-0.00,0.07,0.00,19.37,23.04,26.18,14.17,48.24,1015.13,2044.98,3375.92,3106.41,3565.05,600.31,602.86,13.09,0000 0000 0000 0000 000000
2018-09-04 06:56:56,0.00,0.07,0.00,19.39,23.04,26.16,14.17,48.18,1015.11,2044.97,3375.82,3106.17,3565.01,600.02,602.46,13.14,0000 0000 0000 0000 000000
2018-09-04 07:01:58,0.01,0.07,0.00,19.42,23.04,26.14,14.14,48.24,1015.13,2044.98,3375.45,3106.10,3565.00,599.91,602.33,13.19,0000 0000 0000 0000 000000
2018-09-04 07:06:59,0.00,0.07,0.00,19.44,23.03,26.11,14.07,48.30,1015.15,2044.99,3375.29,3106.06,3565.00,599.78,602.19,13.24,0000 0000 0000 0000 000000
2018-09-04 07:12:00,0.00,0.07,0.00,19.46,23.03,26.14,14.15,48.25,1015.15,2044.98,3375.06,3106.04,3564.99,600.25,602.61,13.29,0000 0000 0000 0000 000000
2018-09-04 07:17:01,0.00,0.07,0.00,19.48,23.03,26.12,14.08,48.12,1015.15,2044.98,3375.02,3106.01,3564.98,600.00,602.22,13.34,0000 0000 0000 0000 000000
2018-09-04 07:22:03,0.00,0.07,0.00,19.50,23.04,26.08,14.08,48.14,1015.15,2044.99,3375.00,3106.00,3564.95,600.07,602.40,13.39,0000 0000 0000 0000 000000
2018-09-04 07:27:04,0.00,0.07,0.00,19.53,23.04,26.08,14.14,48.17,1015.15,2044.97,3375.00,3106.01,3564.81,600.13,602.38,13.44,0000 0000 0000 0000 000000
2018-09-04 07:32:05,0.00,0.07,0.00,19.54,23.04,26.08,14.09,48.23,1015.10,2044.98,3375.00,3106.01,3564.77,600.12,602.21,13.49,0000 0000 0000 0000 000000
2018-09-04 07:37:07,0.00,0.07,0.00,19.55,23.04,26.12,14.19,48.42,1014.88,2044.98,3375.00,3106.00,3564.28,600.07,602.13,13.54,0000 0000 0000 0000 000000
2018-09-04 07:42:08,0.00,0.07,0.00,19.54,23.05,26.12,14.05,48.25,1014.69,2044.97,3374.94,3105.99,3564.02,599.84,601.72,13.59,0000 0000 0000 0000 000000
2018-09-04 07:47:09,0.01,0.07,0.00,19.54,23.05,26.17,14.06,48.33,1014.66,2044.96,3374.61,3105.98,3564.00,599.80,601.74,13.64,0000 0000 0000 0000 000000
2018-09-04 07:52:11,0.00,0.07,0.00,19.53,23.06,26.19,14.15,48.42,1014.48,2044.97,3374.16,3105.94,3564.00,600.08,601.94,13.69,0000 0000 0000 0000 000000
2018-09-04 07:57:12,0.01,0.07,0.00,19.52,23.07,26.17,14.06,48.49,1014.19,2044.96,3374.02,3105.43,3563.89,599.66,601.45,13.74,0000 0000 0000 0000 000000
2018-09-04 08:02:13,0.08,0.07,0.00,19.52,23.07,26.20,14.02,48.49,1014.18,2044.94,3373.33,3104.32,3562.52,599.63,601.43,13.79,0000 0000 0000 0000 000000
2018-09-04 08:07:15,0.06,0.08,0.00,19.52,23.07,26.16,14.08,48.48,1014.16,2044.92,3372.03,3102.43,3560.36,599.93,601.59,13.84,0000 0000 0000 0000 000000
2018-09-04 08:12:16,-0.00,0.08,0.00,19.54,23.07,26.14,14.02,48.45,1014.17,2044.79,3371.98,3102.07,3560.02,599.85,601.62,13.89,0000 0000 0000 0000 000000
2018-09-04 08:17:17,-0.02,0.08,0.00,19.56,23.07,26.18,14.08,48.35,1014.23,2044.55,3371.88,3102.00,3560.00,599.87,601.58,13.94,0000 0000 0000 0000 000000
2018-09-04 08:22:19,0.01,0.08,0.00,19.58,23.07,26.13,14.10,48.67,1014.49,2044.67,3371.72,3102.00,3560.00,600.22,601.86,13.99,0000 0000 0000 0000 000000
2018-09-04 08:27:20,0.04,0.08,0.00,19.61,23.07,26.13,14.13,48.48,1014.65,2044.62,3371.09,3101.52,3559.18,600.40,602.15,14.04,0000 0000 0000 0000 000000
2018-09-04 08:32:21,0.01,0.08,0.00,19.60,23.08,26.18,14.15,48.52,1014.66,2044.66,3370.99,3101.11,3559.00,599.86,601.71,14.09,0000 0000 0000 0000 000000
2018-09-04 08:37:23,0.01,0.08,0.00,19.58,23.09,26.20,14.08,48.48,1014.67,2044.51,3370.42,3101.00,3558.51,599.86,601.79,14.14,0000 0000 0000 0000 000000
2018-09-04 08:42:24,-0.02,0.08,0.00,19.57,23.09,26.20,14.07,48.42,1014.73,2044.21,3370.08,3100.96,3558.09,599.56,601.59,14.19,0000 0000 0000 0000 000000
2018-09-04 08:47:25,0.01,0.08,0.00,19.56,23.09,26.18,14.12,48.21,1015.02,2044.18,3370.00,3100.78,3558.01,599.86,601.95,14.24,0000 0000 0000 0000 000000
2018-09-04 08:52:26,0.00,0.08,0.00,19.54,23.09,26.19,14.13,48.29,1015.11,2044.07,3369.98,3100.20,3558.00,600.08,602.27,14.29,0000 0000 0000 0000 000000
2018-09-04 08:57:27,0.01,0.08,0.00,19.55,23.09,26.20,14.10,48.23,1015.13,2044.16,3369.97,3100.18,3557.98,600.09,602.29,14.34,0000 0000 0000 0000 000000
2018-09-04 09:02:28,0.02,0.08,0.00,19.56,23.09,26.20,14.19,48.31,1015.13,2044.22,3369.89,3100.10,3557.96,600.53,602.64,14.39,0000 0000 0000 0000 000000
2018-09-04 09:07:29,0.13,0.09,0.00,19.57,23.09,26.20,14.09,48.27,1015.14,2044.23,3368.76,3098.49,3555.94,599.67,601.68,14.44,0000 0000 0000 0000 000000
2018-09-04 09:12:31,-0.02,0.09,0.00,19.57,23.09,26.18,14.07,48.23,1015.14,2044.16,3367.99,3097.89,3554.51,599.95,602.19,14.50,0000 0000 0000 0000 000000
2018-09-04 09:17:32,0.01,0.09,0.00,19.57,23.09,26.19,14.19,48.27,1015.14,2044.09,3367.92,3097.91,3554.04,600.42,602.63,14.55,0000 0000 0000 0000 000000
2018-09-04 09:22:33,-0.01,0.09,0.00,19.57,23.10,26.18,14.14,48.27,1015.08,2044.06,3367.77,3097.65,3554.35,600.50,602.54,14.60,0000 0000 0000 0000 000000
2018-09-04 09:27:35,0.00,0.09,0.00,19.57,23.10,26.23,14.09,48.30,1014.96,2044.09,3367.96,3097.98,3554.68,599.86,601.90,14.65,0000 0000 0000 0000 000000
2018-09-04 09:32:36,0.03,0.09,0.00,19.57,23.10,26.21,14.16,48.27,1015.05,2044.07,3367.42,3097.61,3554.05,600.26,602.42,14.70,0000 0000 0000 0000 000000
2018-09-04 09:37:38,0.01,0.09,0.00,19.57,23.11,26.23,14.09,48.30,1015.05,2044.04,3367.03,3097.07,3554.00,599.80,601.87,14.75,0000 0000 0000 0000 000000
2018-09-04 09:42:39,-0.00,0.09,0.00,19.57,23.12,26.20,14.14,48.17,1014.86,2044.04,3367.00,3097.01,3553.96,599.86,601.97,14.80,0000 0000 0000 0000 000000
2018-09-04 09:47:41,0.01,0.09,0.00,19.57,23.12,26.19,14.09,48.33,1014.70,2044.02,3366.95,3096.99,3553.28,599.95,601.81,14.85,0000 0000 0000 0000 000000
2018-09-04 09:52:42,0.01,0.09,0.00,19.55,23.12,26.25,14.08,48.35,1014.66,2044.01,3366.44,3096.95,3553.00,599.91,601.79,14.90,0000 0000 0000 0000 000000
2018-09-04 09:57:43,0.01,0.09,0.00,19.54,23.12,26.25,14.09,48.42,1014.67,2044.02,3366.09,3096.59,3552.99,600.00,601.82,14.95,0000 0000 0000 0000 000000
2018-09-04 10:02:45,0.01,0.09,0.00,19.53,23.12,26.27,14.13,48.15,1014.94,2044.02,3366.01,3096.13,3552.85,600.20,602.32,15.00,0000 0000 0000 0000 000000
2018-09-04 10:07:46,0.01,0.09,0.00,19.52,23.12,26.26,14.10,48.37,1015.14,2044.01,3366.00,3096.01,3552.13,599.72,602.07,15.05,0000 0000 0000 0000 000000
2018-09-04 10:12:47,0.00,0.09,0.00,19.54,23.12,26.26,14.20,48.45,1015.15,2044.02,3365.97,3096.00,3552.04,600.36,602.50,15.10,0000 0000 0000 0000 000000
2018-09-04 10:17:49,0.01,0.09,0.00,19.56,23.12,26.19,14.04,48.25,1015.17,2044.02,3365.64,3095.99,3552.00,599.89,602.22,15.15,0000 0000 0000 0000 000000
2018-09-04 10:22:50,0.00,0.09,0.00,19.58,23.12,26.21,14.08,48.23,1015.18,2044.01,3365.13,3095.96,3552.00,599.86,602.00,15.20,0000 0000 0000 0000 000000
2018-09-04 10:27:51,0.02,0.09,0.00,19.59,23.12,26.13,14.11,48.30,1015.18,2044.00,3365.00,3095.51,3551.61,600.07,602.28,15.25,0000 0000 0000 0000 000000
2018-09-04 10:32:52,0.01,0.10,0.00,19.59,23.12,26.19,14.13,48.40,1015.28,2044.00,3364.95,3095.08,3551.06,600.18,602.55,15.30,0000 0000 0000 0000 000000
2018-09-04 10:37:53,0.01,0.10,0.00,19.61,23.12,26.16,14.09,48.39,1015.20,2044.00,3364.69,3095.00,3550.99,600.11,602.17,15.35,0000 0000 0000 0000 000000
2018-09-04 10:42:55,0.01,0.10,0.00,19.62,23.12,26.13,14.15,48.31,1015.15,2044.00,3364.17,3094.99,3550.93,600.27,602.33,15.40,0000 0000 0000 0000 000000
2018-09-04 10:47:56,0.01,0.10,0.00,19.62,23.12,26.17,14.11,48.27,1015.15,2044.00,3364.02,3094.93,3550.25,599.64,601.75,15.45,0000 0000 0000 0000 000000
2018-09-04 10:52:57,0.02,0.10,0.00,19.62,23.12,26.17,14.13,48.19,1015.15,2044.00,3363.99,3094.40,3550.00,600.08,602.21,15.50,0000 0000 0000 0000 000000
2018-09-04 10:57:58,0.00,0.10,0.00,19.62,23.12,26.14,14.15,47.95,1015.14,2044.00,3363.94,3094.05,3549.99,599.71,601.73,15.55,0000 0000 0000 0000 000000
2018-09-04 11:02:59,0.01,0.10,0.00,19.60,23.13,26.17,14.07,47.89,1015.09,2044.00,3363.52,3094.01,3549.74,599.68,601.78,15.60,0000 0000 0000 0000 000000
2018-09-04 11:08:00,0.01,0.10,0.00,19.60,23.14,26.17,14.12,47.88,1014.82,2044.00,3363.07,3094.00,3549.17,600.01,601.74,15.65,0000 0000 0000 0000 000000
2018-09-04 11:13:02,0.03,0.10,0.00,19.60,23.14,26.20,14.11,47.89,1014.69,2044.00,3362.66,3093.53,3548.90,599.53,601.44,15.70,0000 0000 0000 0000 000000
2018-09-04 11:18:03,0.02,0.10,0.00,19.61,23.14,26.18,14.19,47.78,1014.66,2044.00,3361.99,3093.01,3548.16,600.34,602.16,15.75,0000 0000 0000 0000 000000
2018-09-04 11:23:04,0.01,0.10,0.00,19.62,23.14,26.20,14.06,47.84,1014.66,2044.00,3361.16,3092.95,3547.99,599.55,601.28,15.80,0000 0000 0000 0000 000000
2018-09-04 11:28:06,0.05,0.11,0.00,19.62,23.14,26.20,14.07,47.89,1014.57,2044.00,3360.26,3092.16,3547.26,599.86,601.56,15.85,0000 0000 0000 0000 000000
2018-09-04 11:33:07,0.00,0.11,0.00,19.60,23.14,26.20,14.10,47.94,1014.25,2044.00,3360.00,3092.00,3547.00,600.01,601.56,15.90,0000 0000 0000 0000 000000
2018-09-04 11:38:08,0.00,0.11,0.00,19.59,23.15,26.21,14.07,47.81,1014.18,2044.00,3359.99,3091.99,3546.99,600.18,601.65,15.95,0000 0000 0000 0000 000000
2018-09-04 11:43:09,0.01,0.11,0.00,19.59,23.15,26.22,14.10,47.79,1014.18,2044.00,3359.77,3091.88,3546.70,599.87,601.44,16.00,0000 0000 0000 0000 000000
2018-09-04 11:48:10,0.03,0.11,0.00,19.57,23.15,26.24,14.09,47.90,1013.99,2044.00,3359.08,3091.16,3546.04,599.84,601.30,16.05,0000 0000 0000 0000 000000
2018-09-04 11:53:11,0.00,0.11,0.00,19.54,23.15,26.24,14.11,48.16,1013.71,2044.00,3359.00,3091.00,3545.90,599.97,601.36,16.10,0000 0000 0000 0000 000000
2018-09-04 11:58:12,0.02,0.11,0.00,19.50,23.15,26.30,14.08,48.27,1013.69,2044.00,3358.59,3090.88,3545.12,599.98,601.41,16.15,0000 0000 0000 0000 000000
2018-09-04 12:03:14,0.04,0.11,0.00,19.47,23.15,26.35,14.10,48.30,1013.68,2044.00,3357.98,3090.02,3544.13,600.12,601.48,16.20,0000 0000 0000 0000 000000
2018-09-04 12:08:15,0.02,0.11,0.00,19.43,23.14,26.33,14.23,48.03,1013.65,2044.00,3357.43,3089.50,3544.00,600.61,602.16,16.25,0000 0000 0000 0000 000000
2018-09-04 12:13:16,0.01,0.11,0.00,19.39,23.14,26.35,14.15,48.25,1013.35,2044.00,3357.04,3089.07,3543.92,599.91,601.33,16.30,0000 0000 0000 0000 000000
2018-09-04 12:18:18,0.05,0.12,0.00,19.36,23.13,26.33,14.15,48.27,1013.24,2044.00,3356.47,3088.48,3543.11,600.18,601.53,16.35,0000 0000 0000 0000 000000
2018-09-04 12:23:19,0.01,0.12,0.00,19.33,23.12,26.35,14.20,48.12,1013.20,2044.04,3356.01,3088.00,3542.13,600.05,601.41,16.40,0000 0000 0000 0000 000000
2018-09-04 12:28:20,-0.00,0.12,0.00,19.31,23.11,26.31,14.08,48.17,1013.20,2044.02,3355.99,3087.98,3542.00,600.20,601.67,16.45,0000 0000 0000 0000 000000
2018-09-04 12:33:22,0.01,0.12,0.00,19.29,23.09,26.32,14.15,48.25,1013.12,2044.06,3355.94,3087.88,3541.98,599.82,601.35,16.50,0000 0000 0000 0000 000000
2018-09-04 12:38:23,0.05,0.12,0.00,19.27,23.09,26.35,14.19,48.40,1012.82,2044.10,3355.38,3087.31,3541.42,600.19,601.71,16.55,0000 0000 0000 0000 000000
2018-09-04 12:43:24,0.03,0.12,0.00,19.27,23.07,26.28,14.07,48.42,1012.72,2044.12,3354.98,3086.64,3540.59,599.98,601.32,16.60,0000 0000 0000 0000 000000
2018-09-04 12:48:26,0.05,0.13,0.00,19.25,23.06,26.28,14.10,48.41,1012.72,2044.23,3354.19,3085.83,3539.77,599.95,601.31,16.65,0000 0000 0000 0000 000000
2018-09-04 12:53:27,0.04,0.13,0.00,19.22,23.04,26.24,14.04,48.66,1012.71,2044.39,3353.97,3085.05,3539.05,599.89,601.30,16.70,0000 0000 0000 0000 000000